Regional Weather Roundup
Issued by NWS

Home | Current Version | Previous Version | Graphics & Text | Print | Product List | Glossary On
Versions: 1 2 3 4 5 6 7 8 9 10 11 12 13 14 15 16 17 18 19 20 21 22 23 24 25 26 27 28 29 30 31 32 33 34 35 36 37 38 39 40 41 42 43 44 45 46 47 48 49 50
830
ASUS43 KIND 282109
RWRIN

WEATHER ROUNDUP FOR INDIANA
NATIONAL WEATHER SERVICE INDIANAPOLIS IN
500 PM EDT FRI APR 28 2017

NOTE: "FAIR" INDICATES FEW OR NO CLOUDS BELOW 12,000 FEET WITH NO
SIGNIFICANT WEATHER AND/OR OBSTRUCTIONS TO VISIBILITY.

* - STATION DOES NOT REPORT WEATHER SUCH AS PRECIPITATION OR FOG.

+ - STATION NOT QUALITY CONTROLLED BY THE NATIONAL WEATHER SERVICE.
    USE DATA WITH CAUTION...ESPECIALLY DEWPOINT AND RELATIVE
    HUMIDITY OBSERVATIONS.

INZ001>003-010>013-019-020-282200-
NORTHWEST INDIANA

CITY           SKY/WX    TMP DP  RH WIND       PRES   REMARKS
GARY /AIRPORT/ PTSUNNY   61  45  55 E7        29.87F
KNOX *+        CLOUDY    59  27  29 E7        29.87S
LA PORTE +     CLOUDY    60  47  61 SE10      29.87F
MICHIGAN CITY+ CLOUDY    59  45  58 SE5       29.87F
MONTICELLO +   RAIN      54  52  93 SE5       29.91R
RENSSELAER +   LGT RAIN  55  50  82 SE12      29.86S
VALPARAISO     CLOUDY    61  48  62 SE9       29.84F

$$

LMZ046-743>745-282200-
SOUTHERN LAKE MICHIGAN

STATION/POSITION TIME  TEMP    WIND        PRES    WAVE
                       AIR SEA DIR/SP/G            HT
                 (UTC) (F)     (DEG/KT/KT) (MB)    (FT)
BURNS HARBOR     2040   60     130/  6/ 11 1012.2F
MICHIGAN CITY    2040   59     150/  9/ 10   N/A
5NW MICH CITY    2100   47 47                N/A     1

$$

INZ004-005-014>016-021>024-282200-
NORTH CENTRAL INDIANA

CITY           SKY/WX    TMP DP  RH WIND       PRES   REMARKS
ELKHART        CLOUDY    61  43  51 S12       29.91F
GOSHEN         CLOUDY    60  44  55 SE10      29.89F
LOGANSPORT +   CLOUDY    54  50  87 SE6       29.93R
PERU/GRISSOM   CLOUDY    54  54 100 SE9       29.91R
ROCHESTER +    LGT RAIN  59  50  72 SE6       29.88F
SOUTH BEND     CLOUDY    60  45  57 SE13      29.90F
WARSAW +       DRIZZLE   55  46  71 SE7       29.89F

$$

INZ006>009-017-018-025>027-282200-
NORTHEAST INDIANA

CITY           SKY/WX    TMP DP  RH WIND       PRES   REMARKS
ANGOLA *+      SUNNY     59  48  67 S10       29.93F
AUBURN +       LGT RAIN  55  48  76 E3        29.93F
FORT WAYNE     LGT RAIN  55  51  86 E9        29.92F
HUNTINGTON +   CLOUDY    53  52  96 E9        29.91F
KENDALLVILLE + DRIZZLE   57  49  74 S9        29.93F

$$

INZ028-029-035-036-043>045-051>053-282200-
WEST CENTRAL INDIANA

CITY           SKY/WX    TMP DP  RH WIND       PRES   REMARKS
CRAWFORDSVL +  CLOUDY    54  52  91 NE5       29.90R
GREENCASTLE +  LGT RAIN  57  52  82 E8        29.86S
LAFAYETTE      CLOUDY    54  52  93 SE5       29.90R
TERRE HAUTE    LGT RAIN  59  54  83 E9        29.79F

$$

INZ030>032-037>040-046>048-054>057-064-065-282200-
CENTRAL INDIANA

CITY           SKY/WX    TMP DP  RH WIND       PRES   REMARKS
CP ATTERBURY + CLOUDY    63  55  77 E8G20     29.84F
COLUMBUS       LGT RAIN  64  55  72 SE13      29.83F
FISHERS *+     PTSUNNY   59  52  77 E7        29.87F
FRANKFORT +    CLOUDY    58  53  83 E9        29.91F
GREENWOOD *+   PTSUNNY   65  51  60 E12       29.85F
INDIANAPOLIS   CLOUDY    62  50  64 E10       29.86F
-EAGLE CREEK   CLOUDY    61  49  64 E10       29.86F
KOKOMO +       CLOUDY    56  52  86 SE10      29.92F
MARION +       CLOUDY    55  50  82 SE8       29.93R HAZE
MT COMFORT *+  CLOUDY    61  50  67 E13       29.88F
SHELBYVILLE    LGT RAIN  68  52  56 E15       29.86F
ZIONSVILLE +   CLOUDY    56  50  80 E12       29.88F

$$

INZ033-034-041-042-049-050-058-059-282200-
EAST CENTRAL INDIANA

CITY           SKY/WX    TMP DP  RH WIND       PRES   REMARKS
MUNCIE         CLOUDY    61  50  67 SE12      29.92F
RICHMOND +     CLOUDY    63  52  67 E13       29.94F

$$

INZ060-061-067>069-081>083-085>088-282200-
SOUTHWEST INDIANA

CITY           SKY/WX    TMP DP  RH WIND       PRES   REMARKS
EVANSVILLE     CLOUDY    73  62  68 SE12      29.78F
WASHINGTON +   CLOUDY    65  55  67 E6        29.81S

$$

INZ062-063-066-070>080-084-089>092-282200-
SOUTH CENTRAL AND SOUTHEAST INDIANA

CITY           SKY/WX    TMP DP  RH WIND       PRES   REMARKS
BEDFORD +      CLOUDY    64  54  68 E8        29.82F THUNDER
BLOOMINGTON    CLOUDY    60  53  77 E5        29.83F THUNDER
MADISON *+     CLOUDY    72  55  56 E7        29.89F
SEYMOUR +      PTSUNNY   73  55  53 E8        29.83F

$$





USA.gov is the U.S. government's official web portal to all federal, state and local government web resources and services.